2019-093B (44880 NORAD) Tracking and Keplerian Element Data

This shows tracking and keplerian element data for the satellite.

Feedback or suggestion? Click here.




ElementValue
Catalog44880
Name2019-093B
Epoch Orbit1465
Epoch Day88.14103421
Epoch Year2020
RAAN164.7108
Inclination97.9628
Eccentricity0.0014
Argument of Perigee305.731
Mean Anonmoly54.2606
Mean Motion14.81386623
Decay Rate1.51E-06
L11 44880U 19093B 20088.14103421 .00000151 00000-0 26102-4 0 9992
L22 44880 97.9628 164.7108 0014000 305.7310 54.2606 14.81386623 14659

Live tracking and technical data element details for 2019-093B (NORAD 44880). 2019-093B can be tracked NOW for your location showing map with azimuth and elevation plus other details from your city location.

Track the satellite on the map from your city or location and see movement details for azimuth, elevation, latitude, longitude, range, height, and movement on the map or in text.







IsCatalogInMostPopularTable: catalog: 44880, numindb: 29
Update: records affected: 1



GetName: 44880 2019-093B

Hit Count: updated at: Mon, 30 Mar 2020 13:33:01 GMT